Probability
0 0 0 0 0 0 0 0 0 0 0 0 0 0 0 0 0 0 0 0 0 0 0 0 0 0 0 0 0 0 0 0 0 0 0 0 0 0 0 0 0 0 0 0
0 0 0 0 0 0 0 0 0 0 0 0 0 0 0 0 0 0 0 0 0 0 0 0 0 0 0 0 0 0 0 0 0 0 0 0 0 0 0 0 0 0 0 0
0 0 0 0 0 0 0 0 0 0 0 0 0 0 0 0 0 0 0 0 0 0 0 0 0 0 0 0 0 0 0 0 0 0 0 0 0 0 0 0 0 0 1 1
0 0 0 0 0 0 0 0 0 0 0 0 0 0 0 0 0 0 0 0 0 0 0 0 0 0 0 0 0 0 0 0 0 0 0 0 0 0 0 0 0 0 0 0
0 0 0 0 0 0 0 0 0 0 0 0 0 0 0 0 0 0 0 0 0 0 0 0 0 0 0 0 0 0 0 0 0 0 0 0 0 0 0 0 0 0 0 0
0 0 0 0 0 0 0 0 0 0 0 0 0 0 0 0 0 0 0 0 0 0 0 0 0 0 0 0 0 0 0 0 0 0 0 0 0 0 0 0 0 0 0 0
0 0 0 0 0 0 0 0 0 0 0 0 0 0 0 0 0 0 0 0 0 0 0 0 0 0 0 0 0 0 0 0 0 0 0 0 0 0 0 0 0 0 0 0
0 0 0 0 0 0 0 0 0 0 0 0 0 0 0 0 0 0 0 0 0 0 0 0 0 0 0 0 0 0 0 0 0 0 0 0 0 0 0 0 0 0 0 0
0 0 0 0 0 0 0 0 0 0 0 0 0 0 0 0 0 0 0 0 0 0 0 0 0 0 0 0 0 0 0 0 0 0 0 0 0 0 0 0 0 0 0 0
0 0 0 0 0 0 0 0 0 0 0 0 0 0 0 0 0 0 0 0 0 0 0 0 0 0 0 0 0 0 0 0 0 0 0 0 0 0 0 0 0 0 0 0
0 0 0 0 0 0 0 0 0 0 0 0 0 0 0 0 0 0 0 0 0 0 0 0 0 0 0 0 0 0 0 0 0 0 0 0 0 0 0 0 0 0 0 0
0 0 0 0 0 0 0 0 0 0 0 0 0 0 0 0 0 0 0 0 0 0 0 0 0 0 0 0 0 0 0 0 0 0 0 0 0 0 0 0 0 0 0 0
0 0 0 0 0 0 0 0 0 0 0 0 0 0 0 0 0 0 0 0 0 0 0 0 0 0 0 0 0 0 0 0 0 0 0 0 0 0 0 0 0 0 0 0
0 0 0 0 0 0 0 0 0 0 0 0 0 0 0 0 0 0 0 0 0 0 0 0 0 0 0 0 0 0 0 0 0 0 0 0 0 0 0 0 0 0 0 0
0 0 0 0 0 0 0 0 0 0 0 0 0 0 0 0 0 0 0 0 0 0 0 0 0 0 0 0 0 0 0 0 0 0 0 0 0 0 0 0 0 0 0 0
0 0 0 0 0 0 0 0 0 0 0 0 0 0 0 0 0 0 0 0 0 0 0 0 0 0 0 0 0 0 0 0 0 0 0 0 0 0 0 0 0 0 0 0
0 0 0 0 0 0 0 0 0 0 0 0 0 0 0 0 0 0 0 0 0 0 0 0 0 0 0 0 0 0 0 0 0 0 0 0 0 0 0 0 0 0 0 0
0 0 0 0 0 0 0 0 0 0 0 0 0 0 0 0 0 0 0 0 0 0 0 0 0 0 0 0 0 0 0 0 0 0 0 0 0 0 0 0 0 0 0 0
0 0 0 0 0 0 0 0 0 0 0 0 0 0 0 0 0 0 0 0 0 0 0 0 0 0 0 0 0 0 0 0 0 0 0 0 0 0 0 0 0 0 0 0
0 0 0 0 0 0 0 0 0 0 0 0 0 0 0 0 0 0 0 0 0 0 0 0 0 0 0 0 0 0 0 0 0 0 0 0 0 0 0 0 0 0 0 0
0 0 0 0 0 0 0 0 0 0 0 0 0 0 0 0 0 0 0 0 0 0 0 0 0 0 0 0 0 0 0 0 0 0 0 0 0 0 0 0 0 0 0 0
1 0 0 0 0 0 0 0 0 0 0 0 0 0 0 0 0 0 0 0 0 0 0 0 0 0 0 0 0 0 0 0 0 0 0 0 0 0 0 0 0 0 0 0
1 0 0 0 0 0 0 0 0 0 0 0 0 0 0 0 0 0 0 0 0 0 0 0 0 0 0 0 0 0 0 0 0 0 0 0 0 0 0 0 0 0 0 0
1 0 0 0 0 0 0 0 0 0 0 0 0 0 0 0 0 0 0 0 0 0 0 0 0 0 0 0 0 0 0 0 0 0 0 0 0 0 0 0 0 0 0 0
0 0 0 0 0 0 0 0 0 0 0 0 0 0 0 0 0 0 0 0 0 0 0 0 0 0 0 0 0 0 0 0 0 0 0 0 0 0 0 0 0 0 0 0
0 0 0 0 0 0 0 0 0 0 0 0 0 0 0 0 0 0 0 0 0 0 0 0 0 0 0 0 0 0 0 0 0 0 0 0 0 0 0 0 0 0 0 0
0 0 0 0 0 0 0 0 0 0 0 0 0 0 0 0 0 0 0 0 0 0 0 0 0 0 0 0 0 0 0 0 0 0 0 0 0 0 0 0 0 0 0 0
Wind_Speed
3 2 2 2 1 1 4 6 8 11 12 12 10 8 10 12 14 15 14 14 15 16 16 16 16 15 15 16 15 15 16 16 16 16 16 16 16 16 16 16 16 16 16 16
3 2 3 6 5 4 3 5 8 10 11 6 5 8 11 14 15 14 14 15 16 17 17 17 16 16 16 16 15 15 16 17 17 17 17 17 16 16 16 16 16 16 16 16
4 2 7 9 8 6 4 6 8 10 12 10 11 12 14 15 14 14 15 16 17 17 17 16 16 16 16 16 16 16 16 16 17 17 17 17 17 17 17 16 16 15 16 16
5 4 8 4 5 2 5 8 7 9 11 10 11 12 13 11 10 13 15 16 17 16 17 16 16 15 15 15 15 16 16 16 16 17 17 17 17 17 17 15 14 14 14 15
6 9 9 5 6 3 6 9 4 8 10 10 11 13 8 3 8 13 15 15 15 16 17 16 15 15 15 15 15 16 16 16 17 17 17 18 17 17 15 14 14 14 13 14
8 10 9 2 8 3 4 5 1 5 8 10 11 11 8 10 13 14 14 14 15 15 16 15 14 14 15 16 16 16 16 16 17 17 17 17 17 16 14 13 13 13 12 12
10 10 7 8 9 5 6 8 4 5 7 8 9 10 13 15 14 14 15 15 15 15 14 14 14 14 15 15 15 15 15 16 17 16 16 16 15 13 13 12 11 11 11 9
6 8 3 11 8 5 6 3 3 5 6 7 9 11 12 13 13 14 15 15 15 14 15 14 13 13 14 15 15 15 15 16 16 16 15 13 14 13 12 10 10 9 7 7
5 5 3 8 7 3 3 5 5 5 5 7 9 11 12 13 13 14 15 15 14 15 16 14 13 13 14 15 15 15 15 15 15 15 14 12 12 12 10 8 6 5 4 4
7 8 5 8 9 8 7 7 5 4 5 7 9 11 12 12 12 13 14 14 14 15 15 15 15 14 14 14 14 14 14 14 13 13 13 11 9 8 8 7 6 4 4 3
10 10 7 9 10 9 7 7 6 5 5 6 8 10 11 11 12 13 13 13 14 14 15 15 15 14 14 13 13 14 14 13 12 12 11 10 9 7 7 6 5 6 4 3
9 6 7 5 5 6 8 8 7 6 6 6 7 9 11 11 11 12 13 14 14 15 15 15 15 14 14 13 13 13 12 11 10 9 9 9 8 6 2 2 3 3 4 5
11 7 7 4 5 6 7 7 6 5 5 6 6 8 10 11 11 12 13 14 14 15 15 14 14 14 13 13 13 13 12 11 10 9 9 9 8 7 6 1 3 2 3 3
9 7 9 9 7 7 7 6 5 5 5 5 6 7 9 10 11 13 13 14 14 14 14 13 13 14 14 13 13 13 12 11 10 9 8 8 7 7 5 5 3 1 3 3
11 13 11 6 7 8 7 7 7 7 5 5 6 7 8 10 11 12 13 13 13 13 13 13 13 14 14 14 13 13 11 9 9 9 8 7 6 6 5 5 4 3 1 3
8 11 12 10 10 9 9 9 8 6 5 5 6 6 8 9 11 12 12 12 13 13 13 12 13 14 15 14 13 11 9 11 11 10 9 7 6 6 5 4 3 3 2 2
10 12 14 14 13 11 10 9 7 6 5 5 5 6 7 9 10 11 12 12 11 11 10 11 13 14 14 13 12 10 9 9 11 10 7 7 6 5 5 5 4 3 2 3
11 11 11 12 11 11 10 9 7 6 5 4 4 5 7 8 10 11 12 12 12 11 9 11 14 15 13 13 11 9 8 8 8 8 7 6 7 5 4 4 4 3 1 1
9 10 9 9 8 8 8 8 7 6 5 5 5 5 6 7 8 10 11 11 11 11 12 14 16 14 13 14 14 9 9 9 8 7 7 5 5 4 4 4 3 3 3 2
7 8 9 9 9 9 8 8 7 7 6 6 6 5 6 6 7 9 10 9 7 8 12 14 14 12 13 13 15 9 9 9 9 8 7 6 5 4 4 4 4 3 3 3
7 7 9 10 10 10 9 9 9 8 8 8 7 6 5 5 6 7 8 8 7 9 12 11 9 10 12 14 13 9 8 8 8 7 7 6 4 3 3 3 2 2 2 2
10 8 9 10 10 10 10 9 9 9 8 8 8 7 5 5 6 6 6 5 7 8 9 8 8 12 16 16 8 8 8 8 7 7 6 6 5 3 2 2 2 1 1 2
11 10 9 10 10 10 10 10 10 9 9 9 9 8 6 4 4 5 5 5 6 9 9 7 10 15 19 10 8 8 8 9 8 7 7 6 5 3 2 2 2 2 2 2
13 11 10 9 9 10 11 10 10 8 9 9 9 8 6 5 3 2 3 2 3 7 7 6 9 13 13 7 7 7 8 8 8 8 7 6 5 4 3 2 1 2 2 3
14 13 10 9 9 9 10 10 10 10 11 9 9 9 7 4 3 2 2 4 3 5 6 6 6 10 8 7 7 8 7 7 8 8 7 7 6 4 3 2 1 2 2 2
15 13 11 10 10 9 9 9 9 9 9 8 8 7 6 5 3 2 2 2 3 4 5 5 7 7 7 7 8 8 7 8 8 7 7 7 7 6 4 3 3 2 2 2
15 14 10 10 9 9 9 9 9 9 9 9 8 8 7 5 4 2 1 1 2 3 4 5 6 6 7 7 7 7 7 7 8 7 7 7 6 6 5 5 3 2 1 1
Wind_Direction
34 20 291 279 217 322 344 343 323 330 321 327 340 329 319 316 318 317 317 317 318 317 317 316 315 315 313 312 312 312 309 306 306 307 305 302 299 297 294 290 285 279 271 262
214 211 257 257 236 245 287 310 313 312 320 359 333 307 311 318 321 317 318 319 319 317 317 316 316 314 313 312 312 311 307 307 308 306 305 303 301 298 294 289 286 282 273 265
290 190 261 252 218 226 286 321 310 313 328 334 311 316 320 320 318 317 319 319 318 318 316 315 314 314 312 312 312 310 307 305 306 306 305 304 302 301 297 293 290 285 277 268
294 257 270 60 108 211 289 303 297 296 310 319 316 317 304 298 308 317 317 317 317 316 315 314 315 315 314 312 311 309 306 307 308 307 305 305 302 300 298 295 290 285 277 270
284 284 289 146 173 215 288 305 309 307 313 316 321 307 305 28 322 316 315 315 314 314 314 315 315 317 315 312 311 308 308 310 310 309 306 304 302 300 298 295 289 284 275 269
271 290 297 81 130 132 271 274 42 302 307 316 319 311 342 351 327 321 319 317 316 314 313 314 319 320 315 313 312 310 311 310 309 308 305 303 302 302 299 296 289 286 278 270
269 276 285 115 137 185 274 351 7 309 308 310 315 312 319 321 320 319 318 317 315 314 313 318 320 318 312 311 310 312 311 308 308 308 306 304 305 304 303 299 293 287 281 271
267 273 300 133 163 240 323 347 304 300 301 307 308 309 312 315 316 317 319 319 320 317 316 319 320 319 313 311 312 312 310 309 309 311 310 311 310 308 307 305 300 296 286 276
277 301 73 181 212 247 293 283 288 289 302 309 308 312 315 317 318 320 320 320 319 318 317 319 324 323 314 313 314 313 311 310 310 313 312 313 314 315 316 314 307 302 289 274
264 269 239 220 232 244 246 260 273 276 294 305 308 313 316 318 319 320 321 321 321 321 320 321 324 322 316 314 316 314 312 312 312 314 315 319 318 319 321 318 314 313 304 285
258 273 263 231 229 235 232 233 242 249 276 300 307 310 316 316 318 320 320 321 321 320 319 320 322 321 320 321 320 317 313 312 313 315 318 315 319 327 327 337 345 323 315 306
267 271 244 241 194 206 214 221 230 248 273 291 300 307 313 314 317 318 319 320 319 321 322 323 322 321 322 325 323 318 314 314 313 316 316 315 321 330 359 322 358 351 333 323
261 272 250 230 187 191 205 213 216 231 263 288 300 306 310 313 315 318 319 321 323 323 321 321 321 321 326 330 323 318 313 312 311 314 314 317 325 331 341 36 154 107 42 4
243 239 237 223 213 196 199 199 209 226 253 277 295 303 307 312 316 320 323 324 323 321 319 323 325 325 330 329 322 318 314 309 306 309 312 317 325 331 342 348 357 90 114 72
228 222 234 224 194 186 191 197 213 233 251 270 285 296 308 314 318 321 322 323 323 320 325 330 328 329 331 327 323 318 315 314 316 311 310 317 327 337 350 359 359 4 23 116
233 218 225 213 202 197 198 207 225 245 261 274 287 300 311 315 317 319 325 329 327 326 328 329 329 330 328 325 323 317 311 308 305 305 309 322 335 350 358 1 1 7 1 12
232 216 211 214 211 208 209 213 226 246 258 263 284 303 311 317 319 325 330 333 329 322 325 333 332 330 325 325 325 317 313 310 303 296 312 329 338 353 356 353 358 6 17 31
245 240 221 214 212 206 205 208 215 225 238 249 271 293 311 321 325 328 329 330 327 325 340 342 336 328 324 329 330 318 314 310 310 311 316 327 332 341 354 360 357 352 1 129
256 244 223 204 195 191 192 196 203 209 215 227 251 283 305 314 323 325 327 326 325 332 344 341 331 324 332 336 335 319 319 318 314 310 309 312 307 340 0 7 3 353 351 2
280 246 222 202 191 189 187 188 191 196 204 213 234 260 288 313 324 325 325 320 336 345 335 331 327 332 335 337 334 324 326 326 322 319 318 323 336 357 9 16 23 17 356 352
314 263 232 217 206 201 198 193 193 197 202 210 225 247 277 301 315 323 322 325 345 352 333 320 326 340 338 330 321 326 333 335 331 326 326 328 339 4 22 31 39 25 357 345
334 302 265 242 224 213 204 199 198 201 203 210 222 236 255 279 306 316 320 330 337 356 331 329 345 344 333 324 327 336 338 341 337 333 331 330 337 1 24 40 64 58 9 5
335 318 291 265 246 234 217 209 204 203 207 212 218 226 242 279 309 314 323 356 342 345 324 340 345 334 327 327 339 341 342 343 344 341 336 330 333 342 357 20 49 59 48 42
327 321 305 282 261 245 232 220 209 205 207 214 219 217 228 245 255 283 336 351 344 332 326 348 336 328 323 335 346 345 344 344 344 340 339 339 339 341 350 359 75 86 74 67
314 311 302 283 260 245 236 224 213 208 208 210 212 204 216 236 273 327 332 336 360 329 334 346 337 329 337 349 349 349 347 348 343 337 340 344 343 346 352 356 39 87 84 74
303 296 292 277 266 259 245 226 213 203 204 207 204 198 201 199 209 229 258 322 348 340 343 349 350 349 354 352 352 354 352 347 344 345 346 346 347 350 357 2 9 35 65 70
290 285 277 272 267 258 250 238 225 211 200 201 199 193 193 190 195 205 242 336 1 9 11 4 2 2 0 358 358 0 359 354 350 345 346 350 349 348 352 350 351 6 18 78